N4302L KSMO-KLVK

Flight info

Callsign N4302L
Flight time 1h 26m
Altitude 16000
Route SMO V107 FIM T263 MOVDD UHHUT
Aircraft M20P/L-SDGY/S

Departure

Time 2026-04-21 00:43
Airport Santa Monica Municipal Airport (KSMO)

Arrival

Time 2026-04-21 02:10
Airport Livermore Municipal Airport (KLVK)
Time Latitude Longitude Altitude Speed Heading
2026-04-21 00:28 34.01823 -118.44667 179 ft 0 kts 225°
2026-04-21 00:38 34.01822 -118.44667 179 ft 0 kts 225°
2026-04-21 00:38 34.01825 -118.44680 179 ft 4 kts 314°
2026-04-21 00:39 34.01845 -118.44683 179 ft 4 kts 38°
2026-04-21 00:39 34.01873 -118.44648 179 ft 8 kts 46°
2026-04-21 00:39 34.01913 -118.44598 179 ft 9 kts 46°
2026-04-21 00:39 34.01955 -118.44556 179 ft 7 kts
2026-04-21 00:40 34.01991 -118.44563 179 ft 4 kts 348°
2026-04-21 00:40 34.01999 -118.44565 179 ft 0 kts 347°
2026-04-21 00:42 34.02002 -118.44566 179 ft 2 kts 347°
2026-04-21 00:42 34.02027 -118.44573 179 ft 4 kts 347°
2026-04-21 00:42 34.02037 -118.44591 179 ft 3 kts 227°
2026-04-21 00:42 34.01964 -118.44678 179 ft 38 kts 224°
2026-04-21 00:43 34.01657 -118.45041 206 ft 80 kts 224°
2026-04-21 00:43 34.01229 -118.45550 406 ft 94 kts 225°
2026-04-21 00:43 34.00749 -118.46122 657 ft 101 kts 225°
2026-04-21 00:43 34.00242 -118.46727 936 ft 104 kts 224°
2026-04-21 00:44 33.99722 -118.47347 1224 ft 106 kts 225°
2026-04-21 00:44 33.99416 -118.48155 1483 ft 112 kts 264°
2026-04-21 00:44 33.99463 -118.49109 1748 ft 118 kts 272°
2026-04-21 00:45 33.99598 -118.51157 2269 ft 127 kts 272°
2026-04-21 00:45 33.99814 -118.52194 2516 ft 133 kts 301°
2026-04-21 00:45 34.00608 -118.52801 2782 ft 140 kts 337°
2026-04-21 00:45 34.01555 -118.53127 3042 ft 142 kts 341°
2026-04-21 00:46 34.02452 -118.53561 3282 ft 140 kts 316°
2026-04-21 00:46 34.02831 -118.54566 3532 ft 133 kts 266°
2026-04-21 00:46 34.02622 -118.55642 3803 ft 132 kts 251°
2026-04-21 00:46 34.02397 -118.56712 4053 ft 134 kts 258°
2026-04-21 00:47 34.02312 -118.57847 4306 ft 136 kts 266°
2026-04-21 00:47 34.02331 -118.58988 4558 ft 138 kts 270°
2026-04-21 00:47 34.02404 -118.60152 4811 ft 139 kts 272°
2026-04-21 00:47 34.02499 -118.61320 5063 ft 141 kts 273°
2026-04-21 00:48 34.02605 -118.62499 5313 ft 142 kts 274°
2026-04-21 00:48 34.02715 -118.63687 5565 ft 143 kts 274°
2026-04-21 00:48 34.02827 -118.64882 5816 ft 144 kts 274°
2026-04-21 00:48 34.02938 -118.66077 6067 ft 145 kts 274°
2026-04-21 00:49 34.03049 -118.67278 6316 ft 146 kts 274°
2026-04-21 00:49 34.03163 -118.68500 6584 ft 148 kts 273°
2026-04-21 00:49 34.03280 -118.69764 6852 ft 155 kts 273°
2026-04-21 00:49 34.03401 -118.71085 7111 ft 162 kts 273°
2026-04-21 00:50 34.03528 -118.72459 7368 ft 166 kts 273°
2026-04-21 00:50 34.03657 -118.73846 7620 ft 170 kts 273°
2026-04-21 00:50 34.03801 -118.75279 7875 ft 173 kts 277°
2026-04-21 00:50 34.04389 -118.76529 8100 ft 178 kts 316°
2026-04-21 00:51 34.05480 -118.77214 8360 ft 175 kts 339°
2026-04-21 00:51 34.06646 -118.77629 8611 ft 173 kts 344°
2026-04-21 00:51 34.07791 -118.77991 8856 ft 171 kts 344°
2026-04-21 00:51 34.08940 -118.78365 9105 ft 170 kts 343°
2026-04-21 00:52 34.10080 -118.78753 9361 ft 170 kts 342°
2026-04-21 00:52 34.11217 -118.79154 9622 ft 173 kts 341°
2026-04-21 00:52 34.12387 -118.79575 9876 ft 176 kts 341°
2026-04-21 00:52 34.13575 -118.80007 10111 ft 177 kts 341°
2026-04-21 00:53 34.14746 -118.80434 10358 ft 177 kts 340°
2026-04-21 00:53 34.15945 -118.80875 10615 ft 183 kts 340°
2026-04-21 00:53 34.17172 -118.81325 10870 ft 187 kts 340°
2026-04-21 00:53 34.18428 -118.81786 11100 ft 187 kts 340°
2026-04-21 00:54 34.19653 -118.82235 11352 ft 185 kts 340°
2026-04-21 00:54 34.20899 -118.82693 11610 ft 187 kts 339°
2026-04-21 00:54 34.22147 -118.83152 11864 ft 189 kts 339°
2026-04-21 00:54 34.23405 -118.83615 12104 ft 188 kts 339°
2026-04-21 00:55 34.24638 -118.84067 12349 ft 186 kts 339°
2026-04-21 00:55 34.25858 -118.84515 12599 ft 184 kts 338°
2026-04-21 00:55 34.27081 -118.84964 12851 ft 183 kts 338°
2026-04-21 00:55 34.28296 -118.85410 13104 ft 182 kts 338°
2026-04-21 00:56 34.29505 -118.85855 13347 ft 182 kts 338°
2026-04-21 00:56 34.30713 -118.86301 13592 ft 181 kts 337°
2026-04-21 00:56 34.31919 -118.86745 13845 ft 181 kts 337°
2026-04-21 00:56 34.33123 -118.87189 14096 ft 181 kts 337°
2026-04-21 00:57 34.34327 -118.87636 14336 ft 181 kts 335°
2026-04-21 00:57 34.35461 -118.88248 14590 ft 176 kts 324°
2026-04-21 00:57 34.36518 -118.88991 14845 ft 175 kts 320°
2026-04-21 00:57 34.37544 -118.89779 15096 ft 174 kts 317°
2026-04-21 00:58 34.38557 -118.90587 15345 ft 174 kts 317°
2026-04-21 00:58 34.39551 -118.91396 15592 ft 174 kts 316°
2026-04-21 00:58 34.40556 -118.92224 15815 ft 176 kts 316°
2026-04-21 00:58 34.41585 -118.93081 15951 ft 183 kts 316°
2026-04-21 00:59 34.42660 -118.93983 16010 ft 193 kts 316°
2026-04-21 00:59 34.43797 -118.94939 16013 ft 203 kts 316°
2026-04-21 00:59 34.44984 -118.95935 16006 ft 211 kts 317°
2026-04-21 00:59 34.46210 -118.96960 16005 ft 216 kts 317°
2026-04-21 01:00 34.47460 -118.98003 16008 ft 220 kts 317°
2026-04-21 01:00 34.48715 -118.99050 16006 ft 223 kts 317°
2026-04-21 01:00 34.50006 -119.00127 16002 ft 226 kts 317°
2026-04-21 01:00 34.51304 -119.01210 16000 ft 226 kts 317°
2026-04-21 01:01 34.52604 -119.02296 16005 ft 226 kts 317°
2026-04-21 01:01 34.53906 -119.03385 16005 ft 227 kts 317°
2026-04-21 01:01 34.55212 -119.04479 16002 ft 228 kts 317°
2026-04-21 01:01 34.56499 -119.05556 16004 ft 227 kts 317°
2026-04-21 01:02 34.57802 -119.06649 16009 ft 227 kts 317°
2026-04-21 01:02 34.59102 -119.07739 16013 ft 227 kts 317°
2026-04-21 01:02 34.60400 -119.08830 16013 ft 227 kts 317°
2026-04-21 01:02 34.61688 -119.09912 16013 ft 227 kts 317°
2026-04-21 01:03 34.62989 -119.11007 16012 ft 227 kts 317°
2026-04-21 01:03 34.64290 -119.12101 16003 ft 227 kts 317°
2026-04-21 01:03 34.65574 -119.13182 15999 ft 227 kts 317°
2026-04-21 01:03 34.66878 -119.14280 15998 ft 227 kts 317°
2026-04-21 01:04 34.68181 -119.15378 15998 ft 227 kts 317°
2026-04-21 01:04 34.69479 -119.16472 15999 ft 227 kts 317°
2026-04-21 01:04 34.70754 -119.17545 15997 ft 224 kts 317°
2026-04-21 01:04 34.72030 -119.18619 15996 ft 221 kts 317°
2026-04-21 01:05 34.73297 -119.19684 15998 ft 219 kts 317°
2026-04-21 01:05 34.74550 -119.20739 15999 ft 218 kts 317°
2026-04-21 01:05 34.75795 -119.21787 15993 ft 217 kts 316°
2026-04-21 01:05 34.77022 -119.22824 15979 ft 217 kts 316°
2026-04-21 01:06 34.78261 -119.23871 15974 ft 216 kts 317°
2026-04-21 01:06 34.79497 -119.24917 15977 ft 215 kts 317°
2026-04-21 01:06 34.80716 -119.25947 15977 ft 215 kts 316°
2026-04-21 01:06 34.81946 -119.26987 15982 ft 215 kts 316°
2026-04-21 01:07 34.83172 -119.28023 15993 ft 214 kts 316°
2026-04-21 01:07 34.84397 -119.29060 15994 ft 214 kts 316°
2026-04-21 01:07 34.85624 -119.30099 15992 ft 214 kts 316°
2026-04-21 01:07 34.86836 -119.31125 15993 ft 214 kts 316°
2026-04-21 01:08 34.88064 -119.32165 15993 ft 214 kts 316°
2026-04-21 01:08 34.89293 -119.33207 15997 ft 214 kts 316°
2026-04-21 01:08 34.90507 -119.34236 15997 ft 215 kts 316°
2026-04-21 01:08 34.91739 -119.35282 15999 ft 215 kts 316°
2026-04-21 01:09 34.92955 -119.36313 15999 ft 215 kts 316°
2026-04-21 01:09 34.94185 -119.37358 15997 ft 215 kts 316°
2026-04-21 01:09 34.95415 -119.38403 15995 ft 215 kts 316°
2026-04-21 01:09 34.96646 -119.39449 15994 ft 215 kts 316°
2026-04-21 01:10 34.97878 -119.40497 15992 ft 216 kts 316°
2026-04-21 01:10 34.99098 -119.41534 15989 ft 216 kts 316°
2026-04-21 01:10 35.00333 -119.42584 15987 ft 216 kts 316°
2026-04-21 01:10 35.01555 -119.43624 15984 ft 216 kts 316°
2026-04-21 01:11 35.02788 -119.44674 15983 ft 216 kts 316°
2026-04-21 01:11 35.04026 -119.45727 15981 ft 216 kts 316°
2026-04-21 01:11 35.05258 -119.46777 15979 ft 216 kts 316°
2026-04-21 01:11 35.06477 -119.47816 15978 ft 216 kts 316°
2026-04-21 01:12 35.07712 -119.48869 15976 ft 216 kts 316°
2026-04-21 01:12 35.08945 -119.49920 15974 ft 216 kts 316°
2026-04-21 01:12 35.10166 -119.50963 15973 ft 216 kts 316°
2026-04-21 01:12 35.11403 -119.52018 15976 ft 216 kts 316°
2026-04-21 01:13 35.12638 -119.53072 16004 ft 217 kts 316°
2026-04-21 01:13 35.13890 -119.54144 16007 ft 222 kts 316°
2026-04-21 01:13 35.15168 -119.55238 15992 ft 225 kts 316°
2026-04-21 01:13 35.16447 -119.56326 15991 ft 223 kts 316°
2026-04-21 01:14 35.17700 -119.57391 15997 ft 221 kts 316°
2026-04-21 01:14 35.18952 -119.58458 15999 ft 220 kts 316°
2026-04-21 01:14 35.20212 -119.59535 15997 ft 219 kts 316°
2026-04-21 01:14 35.21463 -119.60605 15998 ft 218 kts 316°
2026-04-21 01:15 35.22691 -119.61656 15999 ft 218 kts 316°
2026-04-21 01:15 35.23934 -119.62722 15999 ft 217 kts 316°
2026-04-21 01:15 35.25176 -119.63786 15998 ft 217 kts 316°
2026-04-21 01:15 35.26412 -119.64846 15998 ft 217 kts 316°
2026-04-21 01:16 35.27647 -119.65905 16001 ft 217 kts 316°
2026-04-21 01:16 35.28885 -119.66968 16005 ft 217 kts 316°
2026-04-21 01:16 35.30122 -119.68029 16007 ft 217 kts 315°
2026-04-21 01:16 35.30942 -119.68734 16007 ft 217 kts 315°
2026-04-21 01:17 35.32580 -119.70140 16016 ft 218 kts 315°
2026-04-21 01:17 35.33829 -119.71216 16013 ft 221 kts 316°
2026-04-21 01:17 35.34684 -119.71954 16010 ft 223 kts 316°
2026-04-21 01:17 35.35942 -119.73036 16001 ft 222 kts 316°
2026-04-21 01:18 35.37199 -119.74114 16004 ft 220 kts 316°
2026-04-21 01:18 35.38446 -119.75185 16005 ft 219 kts 316°
2026-04-21 01:18 35.39692 -119.76256 16007 ft 218 kts 315°
2026-04-21 01:18 35.40932 -119.77324 16005 ft 218 kts 315°
2026-04-21 01:19 35.42172 -119.78392 16005 ft 217 kts 315°
2026-04-21 01:19 35.43410 -119.79460 16004 ft 217 kts 315°
2026-04-21 01:19 35.44650 -119.80530 15990 ft 218 kts 315°
2026-04-21 01:19 35.45892 -119.81602 15976 ft 218 kts 315°
2026-04-21 01:20 35.47133 -119.82674 15975 ft 218 kts 315°
2026-04-21 01:20 35.48373 -119.83743 15979 ft 218 kts 315°
2026-04-21 01:20 35.49595 -119.84798 15981 ft 217 kts 315°
2026-04-21 01:20 35.50831 -119.85866 15983 ft 217 kts 315°
2026-04-21 01:21 35.52067 -119.86935 15985 ft 217 kts 315°
2026-04-21 01:21 35.53315 -119.88014 15989 ft 219 kts 315°
2026-04-21 01:21 35.54549 -119.89082 15995 ft 219 kts 315°
2026-04-21 01:21 35.55804 -119.90164 15997 ft 219 kts 315°
2026-04-21 01:22 35.57039 -119.91227 16002 ft 218 kts 315°
2026-04-21 01:22 35.58293 -119.92309 16005 ft 218 kts 315°
2026-04-21 01:22 35.59519 -119.93369 16006 ft 218 kts 315°
2026-04-21 01:22 35.60769 -119.94452 16008 ft 218 kts 315°
2026-04-21 01:23 35.61997 -119.95516 16012 ft 217 kts 315°
2026-04-21 01:23 35.63245 -119.96591 16020 ft 218 kts 316°
2026-04-21 01:23 35.64507 -119.97610 16020 ft 219 kts 318°
2026-04-21 01:23 35.65792 -119.98602 16006 ft 220 kts 319°
2026-04-21 01:24 35.67100 -119.99591 16002 ft 221 kts 319°
2026-04-21 01:24 35.68417 -120.00576 15990 ft 222 kts 319°
2026-04-21 01:24 35.69745 -120.01564 15985 ft 222 kts 320°
2026-04-21 01:24 35.71057 -120.02538 15986 ft 222 kts 320°
2026-04-21 01:25 35.72379 -120.03517 15986 ft 222 kts 320°
2026-04-21 01:25 35.73701 -120.04496 15986 ft 221 kts 320°
2026-04-21 01:25 35.75010 -120.05465 15986 ft 221 kts 320°
2026-04-21 01:25 35.76331 -120.06443 15981 ft 221 kts 320°
2026-04-21 01:26 35.77651 -120.07420 15980 ft 221 kts 320°
2026-04-21 01:26 35.78970 -120.08398 15980 ft 221 kts 320°
2026-04-21 01:26 35.80293 -120.09378 15980 ft 221 kts 320°
2026-04-21 01:26 35.81617 -120.10359 15980 ft 221 kts 320°
2026-04-21 01:27 35.82939 -120.11338 15980 ft 221 kts 320°
2026-04-21 01:27 35.84245 -120.12307 15980 ft 221 kts 320°
2026-04-21 01:27 35.85559 -120.13282 15980 ft 221 kts 320°
2026-04-21 01:27 35.86885 -120.14266 15980 ft 221 kts 320°
2026-04-21 01:28 35.88206 -120.15247 15979 ft 221 kts 320°
2026-04-21 01:28 35.89524 -120.16226 15979 ft 221 kts 320°
2026-04-21 01:28 35.90837 -120.17202 15978 ft 221 kts 320°
2026-04-21 01:28 35.92147 -120.18175 15978 ft 221 kts 320°
2026-04-21 01:29 35.93470 -120.19159 15977 ft 221 kts 320°
2026-04-21 01:29 35.94793 -120.20143 15976 ft 221 kts 320°
2026-04-21 01:29 35.96114 -120.21126 15975 ft 221 kts 320°
2026-04-21 01:29 35.97422 -120.22100 15974 ft 221 kts 320°
2026-04-21 01:30 35.98745 -120.23085 15973 ft 221 kts 320°
2026-04-21 01:30 36.00059 -120.24064 15972 ft 221 kts 320°
2026-04-21 01:30 36.01364 -120.25036 15971 ft 221 kts 319°
2026-04-21 01:30 36.02687 -120.26023 15971 ft 222 kts 319°
2026-04-21 01:31 36.04011 -120.27011 15969 ft 222 kts 319°
2026-04-21 01:31 36.05338 -120.28002 15969 ft 222 kts 319°
2026-04-21 01:31 36.06645 -120.28975 15988 ft 221 kts 319°
2026-04-21 01:31 36.07968 -120.29957 15996 ft 221 kts 319°
2026-04-21 01:32 36.09285 -120.30938 15998 ft 221 kts 319°
2026-04-21 01:32 36.10603 -120.31920 15999 ft 222 kts 319°
2026-04-21 01:32 36.11919 -120.32902 15999 ft 222 kts 319°
2026-04-21 01:32 36.13245 -120.33892 15998 ft 222 kts 319°
2026-04-21 01:33 36.14573 -120.34885 16004 ft 223 kts 319°
2026-04-21 01:33 36.15897 -120.35880 16007 ft 228 kts 320°
2026-04-21 01:33 36.17272 -120.36914 15998 ft 232 kts 320°
2026-04-21 01:33 36.18651 -120.37945 15992 ft 229 kts 320°
2026-04-21 01:34 36.19996 -120.38949 15996 ft 227 kts 319°
2026-04-21 01:34 36.21354 -120.39963 15997 ft 226 kts 319°
2026-04-21 01:34 36.22702 -120.40972 15997 ft 225 kts 319°
2026-04-21 01:34 36.24021 -120.41961 15997 ft 224 kts 319°
2026-04-21 01:35 36.25361 -120.42967 15997 ft 224 kts 319°
2026-04-21 01:35 36.26680 -120.43957 15996 ft 223 kts 319°
2026-04-21 01:35 36.28016 -120.44962 15996 ft 223 kts 319°
2026-04-21 01:35 36.29352 -120.45965 15998 ft 223 kts 319°
2026-04-21 01:36 36.30674 -120.46957 15999 ft 224 kts 319°
2026-04-21 01:36 36.32010 -120.47960 15999 ft 224 kts 319°
2026-04-21 01:36 36.33335 -120.48956 15997 ft 224 kts 319°
2026-04-21 01:36 36.34673 -120.49963 15997 ft 224 kts 319°
2026-04-21 01:37 36.35992 -120.50955 16005 ft 224 kts 319°
2026-04-21 01:37 36.37328 -120.51961 16009 ft 224 kts 319°
2026-04-21 01:37 36.38662 -120.52965 16010 ft 224 kts 319°
2026-04-21 01:37 36.39996 -120.53972 16006 ft 224 kts 319°
2026-04-21 01:38 36.41319 -120.54970 16009 ft 225 kts 319°
2026-04-21 01:38 36.42677 -120.55999 16010 ft 231 kts 319°
2026-04-21 01:38 36.44066 -120.57053 15998 ft 235 kts 319°
2026-04-21 01:38 36.45440 -120.58090 15993 ft 232 kts 319°
2026-04-21 01:39 36.46817 -120.59125 15998 ft 230 kts 319°
2026-04-21 01:39 36.48168 -120.60142 15997 ft 228 kts 319°
2026-04-21 01:39 36.49524 -120.61165 15995 ft 227 kts 319°
2026-04-21 01:39 36.50880 -120.62191 15998 ft 227 kts 319°
2026-04-21 01:40 36.52232 -120.63214 16000 ft 226 kts 319°
2026-04-21 01:40 36.53568 -120.64226 15990 ft 227 kts 319°
2026-04-21 01:40 36.54926 -120.65257 15980 ft 228 kts 319°
2026-04-21 01:40 36.56282 -120.66284 15977 ft 228 kts 319°
2026-04-21 01:41 36.57624 -120.67301 15977 ft 227 kts 319°
2026-04-21 01:41 36.58977 -120.68327 15978 ft 227 kts 319°
2026-04-21 01:41 36.60325 -120.69349 15981 ft 226 kts 319°
2026-04-21 01:41 36.61646 -120.70349 15908 ft 224 kts 319°
2026-04-21 01:42 36.62983 -120.71363 15788 ft 225 kts 319°
2026-04-21 01:42 36.64328 -120.72383 15667 ft 227 kts 319°
2026-04-21 01:42 36.65667 -120.73401 15543 ft 228 kts 319°
2026-04-21 01:42 36.67025 -120.74432 15413 ft 228 kts 319°
2026-04-21 01:43 36.68370 -120.75452 15296 ft 228 kts 319°
2026-04-21 01:43 36.69731 -120.76488 15185 ft 233 kts 320°
2026-04-21 01:43 36.71143 -120.77528 15060 ft 237 kts 321°
2026-04-21 01:43 36.72570 -120.78548 14920 ft 235 kts 321°
2026-04-21 01:44 36.73988 -120.79544 14799 ft 233 kts 322°
2026-04-21 01:44 36.75388 -120.80525 14680 ft 234 kts 322°
2026-04-21 01:44 36.76817 -120.81524 14549 ft 234 kts 322°
2026-04-21 01:44 36.78221 -120.82502 14422 ft 232 kts 322°
2026-04-21 01:45 36.79630 -120.83483 14295 ft 230 kts 322°
2026-04-21 01:45 36.81012 -120.84445 14174 ft 229 kts 322°
2026-04-21 01:45 36.82409 -120.85419 14044 ft 228 kts 322°
2026-04-21 01:45 36.83787 -120.86379 13918 ft 228 kts 322°
2026-04-21 01:46 36.85173 -120.87343 13789 ft 227 kts 323°
2026-04-21 01:46 36.86557 -120.88308 13657 ft 227 kts 322°
2026-04-21 01:46 36.87932 -120.89266 13532 ft 226 kts 323°
2026-04-21 01:46 36.89292 -120.90214 13409 ft 226 kts 323°
2026-04-21 01:47 36.90654 -120.91165 13283 ft 225 kts 322°
2026-04-21 01:47 36.92030 -120.92126 13159 ft 225 kts 323°
2026-04-21 01:47 36.93401 -120.93084 13033 ft 225 kts 323°
2026-04-21 01:47 36.94750 -120.94027 12911 ft 225 kts 323°
2026-04-21 01:48 36.96117 -120.94983 12786 ft 224 kts 323°
2026-04-21 01:48 36.97480 -120.95936 12660 ft 224 kts 323°
2026-04-21 01:48 36.98839 -120.96888 12539 ft 223 kts 323°
2026-04-21 01:48 37.00196 -120.97839 12412 ft 223 kts 323°
2026-04-21 01:49 37.01535 -120.98777 12284 ft 223 kts 323°
2026-04-21 01:49 37.02896 -120.99732 12150 ft 223 kts 324°
2026-04-21 01:49 37.04248 -121.00680 12026 ft 222 kts 324°
2026-04-21 01:49 37.05578 -121.01614 11911 ft 222 kts 323°
2026-04-21 01:50 37.06925 -121.02558 11790 ft 222 kts 324°
2026-04-21 01:50 37.08287 -121.03515 11662 ft 221 kts 324°
2026-04-21 01:50 37.09633 -121.04461 11537 ft 221 kts 324°
2026-04-21 01:50 37.10973 -121.05402 11419 ft 221 kts 324°
2026-04-21 01:51 37.12298 -121.06334 11301 ft 220 kts 324°
2026-04-21 01:51 37.13634 -121.07274 11182 ft 220 kts 324°
2026-04-21 01:51 37.14968 -121.08213 11054 ft 220 kts 324°
2026-04-21 01:51 37.16303 -121.09152 10930 ft 220 kts 324°
2026-04-21 01:52 37.17634 -121.10089 10809 ft 219 kts 324°
2026-04-21 01:52 37.20298 -121.11967 10567 ft 219 kts 324°
2026-04-21 01:52 37.21611 -121.12892 10448 ft 219 kts 324°
2026-04-21 01:53 37.22929 -121.13820 10273 ft 215 kts 324°
2026-04-21 01:53 37.24224 -121.14731 10094 ft 211 kts 324°
2026-04-21 01:53 37.25504 -121.15633 9915 ft 209 kts 324°
2026-04-21 01:53 37.26772 -121.16529 9738 ft 208 kts 324°
2026-04-21 01:54 37.28019 -121.17411 9570 ft 207 kts 324°
2026-04-21 01:54 37.29269 -121.18302 9390 ft 206 kts 324°
2026-04-21 01:54 37.30513 -121.19194 9212 ft 205 kts 324°
2026-04-21 01:54 37.31755 -121.20086 9049 ft 204 kts 324°
2026-04-21 01:55 37.32975 -121.20963 8875 ft 204 kts 324°
2026-04-21 01:55 37.34209 -121.21851 8711 ft 203 kts 324°
2026-04-21 01:55 37.35424 -121.22726 8554 ft 203 kts 324°
2026-04-21 01:55 37.36670 -121.23626 8426 ft 208 kts 325°
2026-04-21 01:56 37.37947 -121.24554 8254 ft 213 kts 324°
2026-04-21 01:56 37.39232 -121.25481 8141 ft 213 kts 324°
2026-04-21 01:56 37.40507 -121.26394 7987 ft 214 kts 325°
2026-04-21 01:56 37.41804 -121.27323 7866 ft 213 kts 325°
2026-04-21 01:57 37.43092 -121.28251 7749 ft 213 kts 324°
2026-04-21 01:57 37.44375 -121.29175 7614 ft 214 kts 324°
2026-04-21 01:57 37.45663 -121.30108 7484 ft 213 kts 324°
2026-04-21 01:57 37.46952 -121.31041 7357 ft 213 kts 324°
2026-04-21 01:58 37.48222 -121.31959 7234 ft 213 kts 324°
2026-04-21 01:58 37.49508 -121.32889 7109 ft 213 kts 324°
2026-04-21 01:58 37.50734 -121.33908 6985 ft 209 kts 315°
2026-04-21 01:58 37.51848 -121.35084 6870 ft 207 kts 311°
2026-04-21 01:59 37.52917 -121.36269 6753 ft 207 kts 311°
2026-04-21 01:59 37.53998 -121.37480 6623 ft 207 kts 311°
2026-04-21 01:59 37.55060 -121.38674 6503 ft 206 kts 309°
2026-04-21 01:59 37.56081 -121.39937 6373 ft 205 kts 307°
2026-04-21 02:00 37.57077 -121.41223 6255 ft 204 kts 306°
2026-04-21 02:00 37.57963 -121.42568 6149 ft 198 kts 295°
2026-04-21 02:00 37.58703 -121.44026 6037 ft 196 kts 292°
2026-04-21 02:00 37.59409 -121.45503 5919 ft 196 kts 291°
2026-04-21 02:01 37.60102 -121.46969 5797 ft 196 kts 291°
2026-04-21 02:01 37.60818 -121.48438 5669 ft 197 kts 292°
2026-04-21 02:01 37.61548 -121.49891 5529 ft 192 kts 293°
2026-04-21 02:01 37.62247 -121.51250 5352 ft 181 kts 294°
2026-04-21 02:02 37.62919 -121.52545 5162 ft 173 kts 293°
2026-04-21 02:02 37.63566 -121.53779 4982 ft 162 kts 294°
2026-04-21 02:02 37.64177 -121.54914 4789 ft 150 kts 293°
2026-04-21 02:02 37.64757 -121.55968 4605 ft 142 kts 294°
2026-04-21 02:03 37.65241 -121.56983 4423 ft 132 kts 285°
2026-04-21 02:03 37.65654 -121.57999 4231 ft 128 kts 284°
2026-04-21 02:03 37.66052 -121.58992 4027 ft 125 kts 284°
2026-04-21 02:03 37.66444 -121.59990 3861 ft 130 kts 284°
2026-04-21 02:04 37.66843 -121.61039 3708 ft 133 kts 284°
2026-04-21 02:04 37.67229 -121.62119 3536 ft 135 kts 286°
2026-04-21 02:04 37.67584 -121.63209 3391 ft 136 kts 287°
2026-04-21 02:04 37.67954 -121.64322 3224 ft 137 kts 284°
2026-04-21 02:05 37.68339 -121.65423 3047 ft 136 kts 284°
2026-04-21 02:05 37.68713 -121.66482 2860 ft 126 kts 284°
2026-04-21 02:05 37.69061 -121.67455 2657 ft 117 kts 284°
2026-04-21 02:05 37.69307 -121.68365 2467 ft 105 kts 268°
2026-04-21 02:06 37.69371 -121.69241 2326 ft 93 kts 264°
2026-04-21 02:06 37.69408 -121.70034 2132 ft 88 kts 261°
2026-04-21 02:06 37.69398 -121.70792 1960 ft 84 kts 261°
2026-04-21 02:06 37.69350 -121.71520 1828 ft 84 kts 260°
2026-04-21 02:07 37.69314 -121.72264 1705 ft 85 kts 262°
2026-04-21 02:07 37.69299 -121.73008 1582 ft 86 kts 266°
2026-04-21 02:07 37.69311 -121.73765 1459 ft 86 kts 266°
2026-04-21 02:07 37.69318 -121.74523 1346 ft 85 kts 266°
2026-04-21 02:08 37.69319 -121.75240 1270 ft 80 kts 266°
2026-04-21 02:08 37.69322 -121.75932 1185 ft 77 kts 268°
2026-04-21 02:08 37.69328 -121.76596 1102 ft 76 kts 268°
2026-04-21 02:08 37.69333 -121.77257 1014 ft 75 kts 268°
2026-04-21 02:09 37.69334 -121.77919 917 ft 75 kts 268°
2026-04-21 02:09 37.69348 -121.78569 806 ft 75 kts 272°
2026-04-21 02:09 37.69364 -121.79223 707 ft 73 kts 271°
2026-04-21 02:09 37.69367 -121.79872 623 ft 75 kts 270°
2026-04-21 02:10 37.69374 -121.80525 520 ft 74 kts 270°
2026-04-21 02:10 37.69379 -121.81149 417 ft 68 kts 271°
2026-04-21 02:10 37.69385 -121.81646 404 ft 44 kts 270°
2026-04-21 02:10 37.69387 -121.81808 404 ft 7 kts 280°
2026-04-21 02:11 37.69417 -121.81831 404 ft 4 kts 360°
2026-04-21 02:11 37.69428 -121.81831 404 ft 0 kts 359°
2026-04-21 02:12 37.69436 -121.81831 404 ft 4 kts
2026-04-21 02:12 37.69474 -121.81832 404 ft 6 kts 358°
2026-04-21 02:12 37.69504 -121.81820 404 ft 4 kts 88°
2026-04-21 02:12 37.69504 -121.81762 404 ft 13 kts 90°
2026-04-21 02:13 37.69504 -121.81612 404 ft 14 kts 90°
2026-04-21 02:13 37.69523 -121.81586 404 ft 4 kts
2026-04-21 02:13 37.69553 -121.81587 404 ft 5 kts 359°
2026-04-21 02:13 37.69581 -121.81577 404 ft 2 kts 89°
2026-04-21 02:14 37.69579 -121.81544 404 ft 5 kts 71°
2026-04-21 02:14 37.69606 -121.81537 404 ft 5 kts 359°
2026-04-21 02:14 37.69617 -121.81538 404 ft 0 kts 359°